contact:dominique.lefevre@mio.osupytheas.fr, maurice.libes@osupytheas.fr, didier.mallarino@osupytheas.fr
Project:EMSO http://www.emso-fr.org/EMSO-France
Depth: 2436.0 m
Title:EMSO Ligure Ouest : Data MII capteur MICROCAT
DateTime_Computer,Latitude,Longitude,Temperature,Conductivity,Pressure,DateTime_Instrument
DateTime_Computer,Latitude,Longitude,degC,S m-1,dbar,DateTime_Instrument
2021-06-18T00:02:16Z,42.805,6.029,13.2994,4.60003,2470.591,2021-6-18T02:03:29Z
2021-06-18T00:05:19Z,42.805,6.029,13.2996,4.60003,2470.577,2021-6-18T02:06:32Z
2021-06-18T00:08:22Z,42.805,6.029,13.2995,4.60005,2470.6,2021-6-18T02:09:36Z
2021-06-18T00:11:25Z,42.805,6.029,13.2992,4.60002,2470.591,2021-6-18T02:12:39Z
2021-06-18T00:14:28Z,42.805,6.029,13.2996,4.60007,2470.553,2021-6-18T02:15:42Z
2021-06-18T00:17:31Z,42.805,6.029,13.2996,4.60002,2470.614,2021-6-18T02:18:45Z
2021-06-18T00:20:34Z,42.805,6.029,13.2996,4.60004,2470.577,2021-6-18T02:21:48Z
2021-06-18T00:23:37Z,42.805,6.029,13.2997,4.60002,2470.577,2021-6-18T02:24:51Z
2021-06-18T00:26:41Z,42.805,6.029,13.2995,4.60002,2470.591,2021-6-18T02:27:54Z
2021-06-18T00:29:44Z,42.805,6.029,13.2996,4.60003,2470.591,2021-6-18T02:30:57Z
2021-06-18T00:32:47Z,42.805,6.029,13.3002,4.60003,2470.577,2021-6-18T02:34:01Z
2021-06-18T00:35:50Z,42.805,6.029,13.2998,4.60003,2470.553,2021-6-18T02:37:04Z
2021-06-18T00:38:53Z,42.805,6.029,13.2998,4.60003,2470.577,2021-6-18T02:40:07Z
2021-06-18T00:41:56Z,42.805,6.029,13.2998,4.60003,2470.591,2021-6-18T02:43:10Z
2021-06-18T00:44:59Z,42.805,6.029,13.2993,4.60002,2470.614,2021-6-18T02:46:13Z
2021-06-18T00:48:02Z,42.805,6.029,13.2996,4.60003,2470.624,2021-6-18T02:49:16Z
2021-06-18T00:51:06Z,42.805,6.029,13.2993,4.60002,2470.624,2021-6-18T02:52:19Z
2021-06-18T00:54:09Z,42.805,6.029,13.2996,4.60004,2470.614,2021-6-18T02:55:22Z
2021-06-18T00:57:12Z,42.805,6.029,13.2996,4.60004,2470.577,2021-6-18T02:58:26Z
2021-06-18T01:00:15Z,42.805,6.029,13.2993,4.60002,2470.591,2021-6-18T03:01:29Z
2021-06-18T01:03:18Z,42.805,6.029,13.2995,4.60002,2470.553,2021-6-18T03:04:32Z
2021-06-18T01:06:21Z,42.805,6.029,13.2996,4.60003,2470.637,2021-6-18T03:07:35Z
2021-06-18T01:09:24Z,42.805,6.029,13.2994,4.60002,2470.6,2021-6-18T03:10:38Z
2021-06-18T01:12:27Z,42.805,6.029,13.2996,4.60006,2470.553,2021-6-18T03:13:41Z
2021-06-18T01:15:30Z,42.805,6.029,13.2999,4.60003,2470.6,2021-6-18T03:16:44Z
2021-06-18T01:18:34Z,42.805,6.029,13.2996,4.60003,2470.577,2021-6-18T03:19:47Z
2021-06-18T01:21:37Z,42.805,6.029,13.2994,4.60003,2470.577,2021-6-18T03:22:50Z
2021-06-18T01:24:40Z,42.805,6.029,13.2996,4.60004,2470.6,2021-6-18T03:25:54Z
2021-06-18T01:27:43Z,42.805,6.029,13.2996,4.60003,2470.614,2021-6-18T03:28:57Z
2021-06-18T01:30:46Z,42.805,6.029,13.2996,4.60002,2470.614,2021-6-18T03:32:00Z
2021-06-18T01:33:49Z,42.805,6.029,13.2997,4.60002,2470.577,2021-6-18T03:35:03Z
2021-06-18T01:36:52Z,42.805,6.029,13.2994,4.60003,2470.591,2021-6-18T03:38:06Z
2021-06-18T01:39:55Z,42.805,6.029,13.2996,4.60003,2470.6,2021-6-18T03:41:09Z
2021-06-18T01:42:59Z,42.805,6.029,13.3000,4.60006,2470.577,2021-6-18T03:44:12Z
2021-06-18T01:46:02Z,42.805,6.029,13.2996,4.60003,2470.6,2021-6-18T03:47:15Z
2021-06-18T01:49:05Z,42.805,6.029,13.2997,4.60002,2470.577,2021-6-18T03:50:19Z
2021-06-18T01:52:08Z,42.805,6.029,13.2994,4.60004,2470.567,2021-6-18T03:53:22Z
2021-06-18T01:55:11Z,42.805,6.029,13.2994,4.60003,2470.577,2021-6-18T03:56:25Z
2021-06-18T01:58:14Z,42.805,6.029,13.2996,4.60003,2470.577,2021-6-18T03:59:28Z
2021-06-18T02:01:17Z,42.805,6.029,13.2996,4.60011,2470.539,2021-6-18T04:02:31Z
2021-06-18T02:04:20Z,42.805,6.029,13.2997,4.60003,2470.577,2021-6-18T04:05:34Z
2021-06-18T02:07:24Z,42.805,6.029,13.2993,4.60003,2470.553,2021-6-18T04:08:37Z
2021-06-18T02:10:27Z,42.805,6.029,13.2998,4.60003,2470.553,2021-6-18T04:11:40Z
2021-06-18T02:13:30Z,42.805,6.029,13.2995,4.60003,2470.577,2021-6-18T04:14:44Z
2021-06-18T02:16:33Z,42.805,6.029,13.2995,4.60005,2470.577,2021-6-18T04:17:47Z
2021-06-18T02:19:36Z,42.805,6.029,13.2996,4.60003,2470.553,2021-6-18T04:20:50Z
2021-06-18T02:22:39Z,42.805,6.029,13.2995,4.60004,2470.577,2021-6-18T04:23:53Z
2021-06-18T02:25:42Z,42.805,6.029,13.3001,4.60003,2470.577,2021-6-18T04:26:56Z
2021-06-18T02:28:45Z,42.805,6.029,13.2998,4.60003,2470.6,2021-6-18T04:29:59Z
2021-06-18T02:31:49Z,42.805,6.029,13.2995,4.60006,2470.6,2021-6-18T04:33:02Z
2021-06-18T02:34:52Z,42.805,6.029,13.2997,4.60011,2470.591,2021-6-18T04:36:05Z
2021-06-18T02:37:55Z,42.805,6.029,13.2999,4.60007,2470.577,2021-6-18T04:39:09Z
2021-06-18T02:40:58Z,42.805,6.029,13.2995,4.60003,2470.567,2021-6-18T04:42:12Z
2021-06-18T02:44:01Z,42.805,6.029,13.2993,4.60009,2470.591,2021-6-18T04:45:15Z
2021-06-18T02:47:04Z,42.805,6.029,13.3000,4.60003,2470.6,2021-6-18T04:48:18Z
2021-06-18T02:50:07Z,42.805,6.029,13.2998,4.60005,2470.577,2021-6-18T04:51:21Z
2021-06-18T02:53:10Z,42.805,6.029,13.2997,4.60011,2470.591,2021-6-18T04:54:24Z
2021-06-18T02:56:14Z,42.805,6.029,13.2995,4.60004,2470.577,2021-6-18T04:57:27Z
2021-06-18T02:59:17Z,42.805,6.029,13.2995,4.60004,2470.53,2021-6-18T05:00:30Z
2021-06-18T03:02:20Z,42.805,6.029,13.2996,4.60004,2470.553,2021-6-18T05:03:34Z
2021-06-18T03:05:23Z,42.805,6.029,13.2996,4.60006,2470.567,2021-6-18T05:06:37Z
2021-06-18T03:08:26Z,42.805,6.029,13.2997,4.60006,2470.544,2021-6-18T05:09:40Z
2021-06-18T03:11:29Z,42.805,6.029,13.2997,4.60008,2470.567,2021-6-18T05:12:43Z
2021-06-18T03:14:32Z,42.805,6.029,13.2995,4.60007,2470.581,2021-6-18T05:15:46Z
2021-06-18T03:17:35Z,42.805,6.029,13.2996,4.60005,2470.544,2021-6-18T05:18:49Z
2021-06-18T03:20:39Z,42.805,6.029,13.2996,4.60006,2470.544,2021-6-18T05:21:52Z
2021-06-18T03:23:42Z,42.805,6.029,13.2996,4.60003,2470.544,2021-6-18T05:24:55Z
2021-06-18T03:26:45Z,42.805,6.029,13.2996,4.60003,2470.53,2021-6-18T05:27:59Z
2021-06-18T03:29:48Z,42.805,6.029,13.2998,4.60003,2470.567,2021-6-18T05:31:02Z
2021-06-18T03:32:51Z,42.805,6.029,13.2999,4.60003,2470.567,2021-6-18T05:34:05Z
2021-06-18T03:35:54Z,42.805,6.029,13.2995,4.60006,2470.553,2021-6-18T05:37:08Z
2021-06-18T03:38:57Z,42.805,6.029,13.2991,4.60004,2470.544,2021-6-18T05:40:11Z
2021-06-18T03:42:00Z,42.805,6.029,13.2993,4.60008,2470.53,2021-6-18T05:43:14Z
2021-06-18T03:45:04Z,42.805,6.029,13.2996,4.60003,2470.53,2021-6-18T05:46:17Z
2021-06-18T03:48:07Z,42.805,6.029,13.2996,4.60008,2470.544,2021-6-18T05:49:20Z
2021-06-18T03:51:10Z,42.805,6.029,13.2997,4.60003,2470.544,2021-6-18T05:52:23Z
2021-06-18T03:54:13Z,42.805,6.029,13.2998,4.60003,2470.53,2021-6-18T05:55:27Z
2021-06-18T03:57:16Z,42.805,6.029,13.2998,4.60007,2470.53,2021-6-18T05:58:30Z
2021-06-18T04:00:19Z,42.805,6.029,13.2997,4.60003,2470.52,2021-6-18T06:01:33Z
2021-06-18T04:03:22Z,42.805,6.029,13.2996,4.60004,2470.53,2021-6-18T06:04:36Z
2021-06-18T04:06:25Z,42.805,6.029,13.2997,4.60003,2470.507,2021-6-18T06:07:39Z
2021-06-18T04:09:28Z,42.805,6.029,13.2998,4.60003,2470.544,2021-6-18T06:10:42Z
2021-06-18T04:12:32Z,42.805,6.029,13.2997,4.60003,2470.53,2021-6-18T06:13:45Z
2021-06-18T04:15:35Z,42.805,6.029,13.2998,4.60003,2470.53,2021-6-18T06:16:48Z
2021-06-18T04:18:38Z,42.805,6.029,13.2995,4.60004,2470.52,2021-6-18T06:19:52Z
2021-06-18T04:21:41Z,42.805,6.029,13.2996,4.60009,2470.544,2021-6-18T06:22:55Z
2021-06-18T04:24:44Z,42.805,6.029,13.2993,4.60003,2470.507,2021-6-18T06:25:58Z
2021-06-18T04:27:47Z,42.805,6.029,13.2994,4.60008,2470.507,2021-6-18T06:29:01Z
2021-06-18T04:30:50Z,42.805,6.029,13.2997,4.60009,2470.507,2021-6-18T06:32:04Z
2021-06-18T04:33:53Z,42.805,6.029,13.2995,4.60003,2470.53,2021-6-18T06:35:07Z
2021-06-18T04:36:57Z,42.805,6.029,13.2997,4.60005,2470.544,2021-6-18T06:38:10Z
2021-06-18T04:40:00Z,42.805,6.029,13.2998,4.60004,2470.507,2021-6-18T06:41:13Z
2021-06-18T04:43:03Z,42.805,6.029,13.2999,4.60005,2470.507,2021-6-18T06:44:17Z
2021-06-18T04:46:06Z,42.805,6.029,13.2993,4.60006,2470.52,2021-6-18T06:47:20Z
2021-06-18T04:49:09Z,42.805,6.029,13.2996,4.60003,2470.507,2021-6-18T06:50:23Z
2021-06-18T04:52:12Z,42.805,6.029,13.2993,4.60003,2470.483,2021-6-18T06:53:26Z
2021-06-18T04:55:15Z,42.805,6.029,13.2994,4.60003,2470.53,2021-6-18T06:56:29Z
2021-06-18T04:58:18Z,42.805,6.029,13.2995,4.60006,2470.52,2021-6-18T06:59:32Z
2021-06-18T05:01:22Z,42.805,6.029,13.2997,4.60003,2470.52,2021-6-18T07:02:35Z
2021-06-18T05:04:25Z,42.805,6.029,13.2995,4.60003,2470.52,2021-6-18T07:05:38Z
2021-06-18T05:07:28Z,42.805,6.029,13.2998,4.60003,2470.507,2021-6-18T07:08:42Z
2021-06-18T05:10:31Z,42.805,6.029,13.2997,4.60008,2470.483,2021-6-18T07:11:45Z
2021-06-18T05:13:34Z,42.805,6.029,13.2995,4.60004,2470.46,2021-6-18T07:14:48Z
2021-06-18T05:16:37Z,42.805,6.029,13.2996,4.60004,2470.497,2021-6-18T07:17:51Z
2021-06-18T05:19:40Z,42.805,6.029,13.2997,4.60004,2470.483,2021-6-18T07:20:54Z
2021-06-18T05:22:43Z,42.805,6.029,13.2994,4.60004,2470.52,2021-6-18T07:23:57Z
2021-06-18T05:25:47Z,42.805,6.029,13.2996,4.60003,2470.52,2021-6-18T07:27:00Z
2021-06-18T05:28:50Z,42.805,6.029,13.2998,4.60006,2470.497,2021-6-18T07:30:03Z
2021-06-18T05:31:53Z,42.805,6.029,13.2992,4.60003,2470.52,2021-6-18T07:33:07Z
2021-06-18T05:34:56Z,42.805,6.029,13.2992,4.60003,2470.507,2021-6-18T07:36:10Z
2021-06-18T05:37:59Z,42.805,6.029,13.2996,4.60003,2470.507,2021-6-18T07:39:13Z
2021-06-18T05:41:02Z,42.805,6.029,13.3000,4.60002,2470.483,2021-6-18T07:42:16Z
2021-06-18T05:44:05Z,42.805,6.029,13.2995,4.60008,2470.507,2021-6-18T07:45:19Z
2021-06-18T05:47:08Z,42.805,6.029,13.2996,4.60004,2470.46,2021-6-18T07:48:22Z
2021-06-18T05:50:12Z,42.805,6.029,13.2997,4.60004,2470.497,2021-6-18T07:51:25Z
2021-06-18T05:53:15Z,42.805,6.029,13.2993,4.60003,2470.46,2021-6-18T07:54:28Z
2021-06-18T05:56:18Z,42.805,6.029,13.2996,4.60003,2470.483,2021-6-18T07:57:32Z
2021-06-18T05:59:21Z,42.805,6.029,13.2993,4.60004,2470.45,2021-6-18T08:00:35Z
2021-06-18T06:02:24Z,42.805,6.029,13.2995,4.60006,2470.483,2021-6-18T08:03:38Z
2021-06-18T06:05:27Z,42.805,6.029,13.2995,4.60006,2470.474,2021-6-18T08:06:41Z
2021-06-18T06:08:30Z,42.805,6.029,13.2996,4.60003,2470.46,2021-6-18T08:09:44Z
2021-06-18T06:11:33Z,42.805,6.029,13.2993,4.60006,2470.45,2021-6-18T08:12:47Z
2021-06-18T06:14:36Z,42.805,6.029,13.2997,4.60002,2470.437,2021-6-18T08:15:50Z
2021-06-18T06:17:40Z,42.805,6.029,13.2994,4.60004,2470.46,2021-6-18T08:18:53Z
2021-06-18T06:20:43Z,42.805,6.029,13.2995,4.60003,2470.413,2021-6-18T08:21:56Z
2021-06-18T06:23:46Z,42.805,6.029,13.2993,4.60005,2470.46,2021-6-18T08:25:00Z
2021-06-18T06:26:49Z,42.805,6.029,13.2997,4.60002,2470.46,2021-6-18T08:28:03Z
2021-06-18T06:29:52Z,42.805,6.029,13.2996,4.60003,2470.46,2021-6-18T08:31:06Z
2021-06-18T06:32:55Z,42.805,6.029,13.2995,4.60004,2470.45,2021-6-18T08:34:09Z
2021-06-18T06:35:58Z,42.805,6.029,13.2993,4.60003,2470.437,2021-6-18T08:37:12Z
2021-06-18T06:39:01Z,42.805,6.029,13.2993,4.60003,2470.46,2021-6-18T08:40:15Z
2021-06-18T06:42:05Z,42.805,6.029,13.2989,4.60005,2470.474,2021-6-18T08:43:18Z
2021-06-18T06:45:08Z,42.805,6.029,13.2992,4.60003,2470.437,2021-6-18T08:46:21Z
2021-06-18T06:48:11Z,42.805,6.029,13.2995,4.60003,2470.437,2021-6-18T08:49:25Z
2021-06-18T06:51:14Z,42.805,6.029,13.3000,4.60003,2470.427,2021-6-18T08:52:28Z
2021-06-18T06:54:17Z,42.805,6.029,13.2995,4.60003,2470.404,2021-6-18T08:55:31Z
2021-06-18T06:57:20Z,42.805,6.029,13.2995,4.60003,2470.437,2021-6-18T08:58:34Z
2021-06-18T07:00:23Z,42.805,6.029,13.2993,4.60003,2470.427,2021-6-18T09:01:37Z
2021-06-18T07:03:26Z,42.805,6.029,13.2995,4.60002,2470.45,2021-6-18T09:04:40Z
2021-06-18T07:06:30Z,42.805,6.029,13.2995,4.60004,2470.46,2021-6-18T09:07:43Z
2021-06-18T07:09:33Z,42.805,6.029,13.3000,4.60003,2470.437,2021-6-18T09:10:46Z
2021-06-18T07:12:36Z,42.805,6.029,13.2996,4.60003,2470.45,2021-6-18T09:13:50Z
2021-06-18T07:15:39Z,42.805,6.029,13.2997,4.60003,2470.46,2021-6-18T09:16:53Z
2021-06-18T07:18:42Z,42.805,6.029,13.2995,4.60002,2470.423,2021-6-18T09:19:56Z
2021-06-18T07:21:45Z,42.805,6.029,13.2996,4.60006,2470.437,2021-6-18T09:22:59Z
2021-06-18T07:24:48Z,42.805,6.029,13.2994,4.60006,2470.39,2021-6-18T09:26:02Z
2021-06-18T07:27:51Z,42.805,6.029,13.2992,4.60003,2470.45,2021-6-18T09:29:05Z
2021-06-18T07:30:55Z,42.805,6.029,13.2998,4.60002,2470.437,2021-6-18T09:32:08Z
2021-06-18T07:33:58Z,42.805,6.029,13.2997,4.60001,2470.404,2021-6-18T09:35:11Z
2021-06-18T07:37:01Z,42.805,6.029,13.2998,4.60003,2470.427,2021-6-18T09:38:15Z
2021-06-18T07:40:04Z,42.805,6.029,13.2993,4.60001,2470.413,2021-6-18T09:41:18Z
2021-06-18T07:43:07Z,42.805,6.029,13.2998,4.60001,2470.45,2021-6-18T09:44:21Z
2021-06-18T07:46:10Z,42.805,6.029,13.2993,4.60003,2470.404,2021-6-18T09:47:24Z
2021-06-18T07:49:13Z,42.805,6.029,13.2997,4.60003,2470.45,2021-6-18T09:50:27Z
2021-06-18T07:52:17Z,42.805,6.029,13.2993,4.60002,2470.437,2021-6-18T09:53:30Z
2021-06-18T07:55:20Z,42.805,6.029,13.2995,4.60002,2470.427,2021-6-18T09:56:33Z
2021-06-18T07:58:23Z,42.805,6.029,13.2994,4.60002,2470.413,2021-6-18T09:59:37Z
2021-06-18T08:01:26Z,42.805,6.029,13.2997,4.60002,2470.427,2021-6-18T10:02:40Z
2021-06-18T08:04:29Z,42.805,6.029,13.2995,4.60003,2470.45,2021-6-18T10:05:43Z
2021-06-18T08:07:32Z,42.805,6.029,13.2996,4.60003,2470.437,2021-6-18T10:08:46Z
2021-06-18T08:10:35Z,42.805,6.029,13.2995,4.60003,2470.39,2021-6-18T10:11:49Z
2021-06-18T08:13:38Z,42.805,6.029,13.2995,4.60003,2470.427,2021-6-18T10:14:52Z
2021-06-18T08:16:42Z,42.805,6.029,13.2996,4.60003,2470.413,2021-6-18T10:17:55Z
2021-06-18T08:19:45Z,42.805,6.029,13.2994,4.60003,2470.437,2021-6-18T10:20:58Z
2021-06-18T08:22:48Z,42.805,6.029,13.2998,4.60003,2470.413,2021-6-18T10:24:02Z
2021-06-18T08:25:51Z,42.805,6.029,13.2998,4.60004,2470.39,2021-6-18T10:27:05Z
2021-06-18T08:28:54Z,42.805,6.029,13.2996,4.60003,2470.45,2021-6-18T10:30:08Z
2021-06-18T08:31:57Z,42.805,6.029,13.2995,4.60002,2470.437,2021-6-18T10:33:11Z
2021-06-18T08:35:00Z,42.805,6.029,13.2994,4.60002,2470.427,2021-6-18T10:36:14Z
2021-06-18T08:38:03Z,42.805,6.029,13.2998,4.60006,2470.437,2021-6-18T10:39:17Z
2021-06-18T08:41:07Z,42.805,6.029,13.2995,4.60003,2470.413,2021-6-18T10:42:20Z
2021-06-18T08:44:10Z,42.805,6.029,13.2993,4.60003,2470.437,2021-6-18T10:45:23Z
2021-06-18T08:47:13Z,42.805,6.029,13.2996,4.60004,2470.413,2021-6-18T10:48:27Z
2021-06-18T08:50:16Z,42.805,6.029,13.2996,4.60003,2470.46,2021-6-18T10:51:30Z
2021-06-18T08:53:19Z,42.805,6.029,13.2995,4.60003,2470.404,2021-6-18T10:54:33Z
2021-06-18T08:56:22Z,42.805,6.029,13.2996,4.60003,2470.427,2021-6-18T10:57:36Z
2021-06-18T08:59:25Z,42.805,6.029,13.2996,4.60003,2470.413,2021-6-18T11:00:39Z
2021-06-18T09:02:28Z,42.805,6.029,13.2996,4.60007,2470.437,2021-6-18T11:03:42Z
2021-06-18T09:05:32Z,42.805,6.029,13.2997,4.60007,2470.45,2021-6-18T11:06:45Z
2021-06-18T09:08:35Z,42.805,6.029,13.3002,4.60003,2470.413,2021-6-18T11:09:48Z
2021-06-18T09:11:38Z,42.805,6.029,13.3000,4.60003,2470.427,2021-6-18T11:12:52Z
2021-06-18T09:14:41Z,42.805,6.029,13.2997,4.60003,2470.437,2021-6-18T11:15:55Z
2021-06-18T09:17:44Z,42.805,6.029,13.2997,4.60002,2470.39,2021-6-18T11:18:58Z
2021-06-18T09:20:47Z,42.805,6.029,13.3000,4.60003,2470.39,2021-6-18T11:22:01Z
2021-06-18T09:23:50Z,42.805,6.029,13.2998,4.60003,2470.427,2021-6-18T11:25:04Z
2021-06-18T09:26:53Z,42.805,6.029,13.2996,4.60002,2470.437,2021-6-18T11:28:07Z
2021-06-18T09:29:57Z,42.805,6.029,13.2994,4.60004,2470.437,2021-6-18T11:31:10Z
2021-06-18T09:33:00Z,42.805,6.029,13.2996,4.60002,2470.413,2021-6-18T11:34:13Z
2021-06-18T09:36:03Z,42.805,6.029,13.2997,4.60003,2470.413,2021-6-18T11:37:17Z
2021-06-18T09:39:06Z,42.805,6.029,13.2992,4.60002,2470.413,2021-6-18T11:40:20Z
2021-06-18T09:42:09Z,42.805,6.029,13.2997,4.60003,2470.437,2021-6-18T11:43:23Z
2021-06-18T09:45:12Z,42.805,6.029,13.2991,4.60002,2470.45,2021-6-18T11:46:26Z
2021-06-18T09:48:15Z,42.805,6.029,13.2992,4.60001,2470.427,2021-6-18T11:49:29Z
2021-06-18T09:51:18Z,42.805,6.029,13.2995,4.60002,2470.437,2021-6-18T11:52:32Z
2021-06-18T09:54:22Z,42.805,6.029,13.2995,4.60003,2470.45,2021-6-18T11:55:35Z
2021-06-18T09:57:25Z,42.805,6.029,13.2995,4.60002,2470.413,2021-6-18T11:58:38Z
2021-06-18T10:00:28Z,42.805,6.029,13.2996,4.60002,2470.437,2021-6-18T12:01:42Z
2021-06-18T10:03:31Z,42.805,6.029,13.2998,4.60006,2470.413,2021-6-18T12:04:45Z
2021-06-18T10:06:34Z,42.805,6.029,13.2995,4.60002,2470.45,2021-6-18T12:07:48Z
2021-06-18T10:09:37Z,42.805,6.029,13.2992,4.60001,2470.45,2021-6-18T12:10:51Z
2021-06-18T10:12:40Z,42.805,6.029,13.2993,4.60001,2470.437,2021-6-18T12:13:54Z
2021-06-18T10:15:43Z,42.805,6.029,13.2996,4.60003,2470.399,2021-6-18T12:16:57Z
2021-06-18T10:18:47Z,42.805,6.029,13.2995,4.60003,2470.437,2021-6-18T12:20:00Z
2021-06-18T10:21:50Z,42.805,6.029,13.2996,4.60003,2470.437,2021-6-18T12:23:03Z
2021-06-18T10:24:53Z,42.805,6.029,13.2994,4.60001,2470.413,2021-6-18T12:26:07Z
2021-06-18T10:27:56Z,42.805,6.029,13.2994,4.60001,2470.474,2021-6-18T12:29:10Z
2021-06-18T10:30:59Z,42.805,6.029,13.2993,4.60008,2470.46,2021-6-18T12:32:13Z
2021-06-18T10:34:02Z,42.805,6.029,13.2993,4.60003,2470.437,2021-6-18T12:35:16Z
2021-06-18T10:37:05Z,42.805,6.029,13.2993,4.60001,2470.437,2021-6-18T12:38:19Z
2021-06-18T10:40:08Z,42.805,6.029,13.2994,4.59999,2470.45,2021-6-18T12:41:22Z
2021-06-18T10:43:12Z,42.805,6.029,13.2992,4.60001,2470.45,2021-6-18T12:44:25Z
2021-06-18T10:46:15Z,42.805,6.029,13.2991,4.59999,2470.46,2021-6-18T12:47:28Z
2021-06-18T10:49:18Z,42.805,6.029,13.2991,4.59999,2470.474,2021-6-18T12:50:32Z
2021-06-18T10:52:21Z,42.805,6.029,13.2995,4.60000,2470.474,2021-6-18T12:53:35Z
2021-06-18T10:55:24Z,42.805,6.029,13.2993,4.60001,2470.474,2021-6-18T12:56:38Z
2021-06-18T10:58:27Z,42.805,6.029,13.2992,4.59999,2470.46,2021-6-18T12:59:41Z
2021-06-18T11:01:30Z,42.805,6.029,13.2990,4.60002,2470.474,2021-6-18T13:02:44Z
2021-06-18T11:04:34Z,42.805,6.029,13.2991,4.59999,2470.46,2021-6-18T13:05:47Z
2021-06-18T11:07:37Z,42.805,6.029,13.2993,4.59999,2470.46,2021-6-18T13:08:50Z
2021-06-18T11:10:40Z,42.805,6.029,13.2992,4.59999,2470.45,2021-6-18T13:11:53Z
2021-06-18T11:13:43Z,42.805,6.029,13.2993,4.59999,2470.46,2021-6-18T13:14:57Z
2021-06-18T11:16:46Z,42.805,6.029,13.2993,4.59999,2470.474,2021-6-18T13:18:00Z
2021-06-18T11:19:49Z,42.805,6.029,13.2993,4.59999,2470.46,2021-6-18T13:21:03Z
2021-06-18T11:22:52Z,42.805,6.029,13.2992,4.59999,2470.474,2021-6-18T13:24:06Z
2021-06-18T11:25:55Z,42.805,6.029,13.2992,4.60000,2470.497,2021-6-18T13:27:09Z
2021-06-18T11:28:59Z,42.805,6.029,13.2990,4.59999,2470.483,2021-6-18T13:30:12Z
2021-06-18T11:32:02Z,42.805,6.029,13.2994,4.59999,2470.474,2021-6-18T13:33:15Z
2021-06-18T11:35:05Z,42.805,6.029,13.2994,4.59999,2470.45,2021-6-18T13:36:19Z
2021-06-18T11:38:08Z,42.805,6.029,13.2995,4.59999,2470.474,2021-6-18T13:39:22Z
2021-06-18T11:41:11Z,42.805,6.029,13.2991,4.60002,2470.46,2021-6-18T13:42:25Z
2021-06-18T11:44:14Z,42.805,6.029,13.2989,4.59999,2470.46,2021-6-18T13:45:28Z
2021-06-18T11:47:17Z,42.805,6.029,13.2995,4.60002,2470.46,2021-6-18T13:48:31Z
2021-06-18T11:50:20Z,42.805,6.029,13.2990,4.59999,2470.46,2021-6-18T13:51:34Z
2021-06-18T11:53:24Z,42.805,6.029,13.2993,4.60000,2470.46,2021-6-18T13:54:37Z
2021-06-18T11:56:27Z,42.805,6.029,13.2992,4.59999,2470.474,2021-6-18T13:57:40Z
2021-06-18T11:59:30Z,42.805,6.029,13.2991,4.60000,2470.474,2021-6-18T14:00:44Z
2021-06-18T12:02:33Z,42.805,6.029,13.2990,4.59999,2470.497,2021-6-18T14:03:47Z
2021-06-18T12:05:36Z,42.805,6.029,13.2991,4.59998,2470.483,2021-6-18T14:06:50Z
2021-06-18T12:08:39Z,42.805,6.029,13.2993,4.59999,2470.497,2021-6-18T14:09:53Z
2021-06-18T12:11:42Z,42.805,6.029,13.2993,4.60002,2470.497,2021-6-18T14:12:56Z
2021-06-18T12:14:45Z,42.805,6.029,13.2994,4.59999,2470.497,2021-6-18T14:15:59Z
2021-06-18T12:17:49Z,42.805,6.029,13.2994,4.59999,2470.497,2021-6-18T14:19:02Z
2021-06-18T12:20:52Z,42.805,6.029,13.2995,4.60000,2470.483,2021-6-18T14:22:05Z
2021-06-18T12:23:55Z,42.805,6.029,13.2993,4.59998,2470.497,2021-6-18T14:25:09Z
2021-06-18T12:26:58Z,42.805,6.029,13.2993,4.59998,2470.497,2021-6-18T14:28:12Z
2021-06-18T12:30:01Z,42.805,6.029,13.2991,4.59999,2470.497,2021-6-18T14:31:15Z
2021-06-18T12:33:04Z,42.805,6.029,13.2993,4.60000,2470.45,2021-6-18T14:34:18Z
2021-06-18T12:36:07Z,42.805,6.029,13.2992,4.59999,2470.483,2021-6-18T14:37:21Z
2021-06-18T12:39:10Z,42.805,6.029,13.2993,4.59999,2470.46,2021-6-18T14:40:24Z
2021-06-18T12:42:14Z,42.805,6.029,13.2992,4.59999,2470.544,2021-6-18T14:43:27Z
2021-06-18T12:45:17Z,42.805,6.029,13.2990,4.59999,2470.483,2021-6-18T14:46:31Z
2021-06-18T12:48:20Z,42.805,6.029,13.2991,4.59999,2470.46,2021-6-18T14:49:34Z
2021-06-18T12:51:23Z,42.805,6.029,13.2993,4.59999,2470.497,2021-6-18T14:52:37Z
2021-06-18T12:54:26Z,42.805,6.029,13.2991,4.60001,2470.483,2021-6-18T14:55:40Z
2021-06-18T12:57:29Z,42.805,6.029,13.2987,4.59999,2470.483,2021-6-18T14:58:43Z
2021-06-18T13:00:32Z,42.805,6.029,13.2994,4.60000,2470.483,2021-6-18T15:01:46Z
2021-06-18T13:03:35Z,42.805,6.029,13.2993,4.59999,2470.46,2021-6-18T15:04:49Z
2021-06-18T13:06:39Z,42.805,6.029,13.2996,4.59999,2470.474,2021-6-18T15:07:52Z
2021-06-18T13:09:42Z,42.805,6.029,13.2993,4.60000,2470.483,2021-6-18T15:10:56Z
2021-06-18T13:12:45Z,42.805,6.029,13.2993,4.60002,2470.437,2021-6-18T15:13:59Z
2021-06-18T13:15:48Z,42.805,6.029,13.2993,4.59999,2470.483,2021-6-18T15:17:02Z
2021-06-18T13:18:51Z,42.805,6.029,13.2991,4.59998,2470.497,2021-6-18T15:20:05Z
2021-06-18T13:21:54Z,42.805,6.029,13.2993,4.60003,2470.46,2021-6-18T15:23:08Z
2021-06-18T13:24:57Z,42.805,6.029,13.2994,4.60001,2470.437,2021-6-18T15:26:11Z
2021-06-18T13:28:00Z,42.805,6.029,13.2990,4.60000,2470.497,2021-6-18T15:29:14Z
2021-06-18T13:31:04Z,42.805,6.029,13.2996,4.59999,2470.483,2021-6-18T15:32:17Z
2021-06-18T13:34:07Z,42.805,6.029,13.2989,4.59999,2470.483,2021-6-18T15:35:21Z
2021-06-18T13:37:10Z,42.805,6.029,13.2992,4.59998,2470.46,2021-6-18T15:38:24Z
2021-06-18T13:40:13Z,42.805,6.029,13.2991,4.59999,2470.46,2021-6-18T15:41:27Z
2021-06-18T13:43:16Z,42.805,6.029,13.2995,4.59999,2470.483,2021-6-18T15:44:30Z
2021-06-18T13:46:19Z,42.805,6.029,13.2996,4.59999,2470.507,2021-6-18T15:47:33Z
2021-06-18T13:49:22Z,42.805,6.029,13.2992,4.59999,2470.46,2021-6-18T15:50:36Z
2021-06-18T13:52:26Z,42.805,6.029,13.2991,4.59999,2470.483,2021-6-18T15:53:39Z
2021-06-18T13:55:29Z,42.805,6.029,13.2990,4.60001,2470.413,2021-6-18T15:56:42Z
2021-06-18T13:58:32Z,42.805,6.029,13.2992,4.60001,2470.497,2021-6-18T15:59:46Z
2021-06-18T14:01:35Z,42.805,6.029,13.2992,4.59999,2470.46,2021-6-18T16:02:49Z
2021-06-18T14:04:38Z,42.805,6.029,13.2993,4.60003,2470.474,2021-6-18T16:05:52Z
2021-06-18T14:07:41Z,42.805,6.029,13.2995,4.59999,2470.46,2021-6-18T16:08:55Z
2021-06-18T14:10:44Z,42.805,6.029,13.2992,4.59999,2470.497,2021-6-18T16:11:58Z
2021-06-18T14:13:47Z,42.805,6.029,13.2991,4.59999,2470.483,2021-6-18T16:15:01Z
2021-06-18T14:16:51Z,42.805,6.029,13.2991,4.60000,2470.483,2021-6-18T16:18:04Z
2021-06-18T14:19:54Z,42.805,6.029,13.2990,4.59999,2470.45,2021-6-18T16:21:07Z
2021-06-18T14:22:57Z,42.805,6.029,13.2992,4.60000,2470.45,2021-6-18T16:24:11Z
2021-06-18T14:26:00Z,42.805,6.029,13.2991,4.59999,2470.483,2021-6-18T16:27:14Z
2021-06-18T14:29:03Z,42.805,6.029,13.2994,4.60001,2470.483,2021-6-18T16:30:17Z
2021-06-18T14:32:06Z,42.805,6.029,13.2994,4.59999,2470.483,2021-6-18T16:33:20Z
2021-06-18T14:35:09Z,42.805,6.029,13.2994,4.59999,2470.437,2021-6-18T16:36:23Z
2021-06-18T14:38:12Z,42.805,6.029,13.2990,4.60000,2470.46,2021-6-18T16:39:26Z
2021-06-18T14:41:16Z,42.805,6.029,13.2992,4.59999,2470.46,2021-6-18T16:42:29Z
2021-06-18T14:44:19Z,42.805,6.029,13.2992,4.59999,2470.474,2021-6-18T16:45:32Z
2021-06-18T14:47:22Z,42.805,6.029,13.2994,4.60001,2470.46,2021-6-18T16:48:36Z
2021-06-18T14:50:25Z,42.805,6.029,13.2996,4.59999,2470.483,2021-6-18T16:51:39Z
2021-06-18T14:53:28Z,42.805,6.029,13.2995,4.60000,2470.437,2021-6-18T16:54:42Z
2021-06-18T14:56:31Z,42.805,6.029,13.2994,4.59999,2470.437,2021-6-18T16:57:45Z
2021-06-18T14:59:34Z,42.805,6.029,13.2997,4.60000,2470.45,2021-6-18T17:00:48Z
2021-06-18T15:02:37Z,42.805,6.029,13.2991,4.60000,2470.46,2021-6-18T17:03:51Z
2021-06-18T15:05:41Z,42.805,6.029,13.2990,4.59999,2470.474,2021-6-18T17:06:54Z
2021-06-18T15:08:44Z,42.805,6.029,13.2998,4.59999,2470.46,2021-6-18T17:09:57Z
2021-06-18T15:11:47Z,42.805,6.029,13.2991,4.59999,2470.474,2021-6-18T17:13:01Z
2021-06-18T15:14:50Z,42.805,6.029,13.2992,4.59999,2470.46,2021-6-18T17:16:04Z